Weather History for KSPB - July, 2013

Change the Weather History Date:

Saturday, July 20, 2013

  Actual Average Record
Temperature  
Mean Temperature 69 °F -  
Max Temperature 82 °F - 91 °F (2006)
Min Temperature 57 °F - 48 °F (2011)
Degree Days  
Heating Degree Days 0    
Month to date heating degree days 14  
Since 1 June heating degree days 116  
Since 1 July heating degree days 14  
Cooling Degree Days 5    
Month to date cooling degree days 92  
Year to date cooling degree days 146  
Since 1 June cooling degree days 138  
Growing Degree Days 19 (Base 50)    
Moisture  
Dew Point 54 °F    
Average Humidity 64    
Maximum Humidity 86    
Minimum Humidity 42    
Precipitation  
Precipitation 0.00 in - 0.07 in (2007)
Month to date precipitation T  
Year to date precipitation 13.89  
Sea Level Pressure  
Sea Level Pressure 30.03 in    
Wind  
Wind Speed 7 mph (North)    
Max Wind Speed 15 mph    
Max Gust Speed 18 mph    
Visibility 10 miles    
Events      
T = Trace of Precipitation, MM = Missing Value Source: NWS Daily Summary

Daily Weather History Graph

Daily Weather History Graph

Search for Another Location

Airport or City:

Trip Planner

Search our weather history database for the weather conditions in past years. The results will help you decide how hot, cold, wet, or windy it might be!

Date:

Astronomy

Jul. 20, 2013 Rise Set
Actual Time 5:41 AM PDT 8:53 PM PDT
Civil Twilight 5:05 AM PDT 9:29 PM PDT
Nautical Twilight 4:18 AM PDT 10:15 PM PDT
Astronomical Twilight 3:20 AM PDT 11:13 PM PDT
Moon 7:01 PM PDT (7/20) 3:27 AM PDT (7/20)
Length of Visible Light 16h 23m
Length of Day
15h 11m
Waxing Gibbous, 94% of the Moon is Illuminated
Jul 20
Waxing Gibbous
Jul 22
Full
Jul 29
Last Quarter
Aug 6
New
Aug 14
First Quarter

Hourly Weather History & Observations

Time (PDT) Temp. Heat Index Dew Point Humidity Pressure Visibility Wind Dir Wind Speed Gust Speed Precip Events Conditions
12:53 AM 59.0 °F - 51.1 °F 75% 30.05 in 10.0 mi NNW 10.4 mph - N/A   Clear
1:53 AM 57.9 °F - 51.1 °F 78% 30.06 in 10.0 mi North 9.2 mph - N/A   Clear
2:53 AM 57.0 °F - 51.1 °F 81% 30.07 in 10.0 mi North 6.9 mph - N/A   Clear
3:36 AM 57.2 °F - 51.8 °F 82% 30.07 in 10.0 mi North 6.9 mph - N/A   Mostly Cloudy
3:53 AM 57.0 °F - 51.1 °F 81% 30.07 in 10.0 mi North 5.8 mph - N/A   Overcast
5:02 AM 57.2 °F - 51.8 °F 82% 30.07 in 10.0 mi NNW 4.6 mph - N/A   Overcast
5:53 AM 57.9 °F - 52.0 °F 81% 30.08 in 10.0 mi NW 3.5 mph - N/A   Overcast
6:53 AM 57.9 °F - 52.0 °F 81% 30.08 in 10.0 mi NNW 4.6 mph - N/A   Overcast
7:53 AM 57.9 °F - 53.1 °F 84% 30.09 in 10.0 mi North 6.9 mph - N/A   Overcast
8:53 AM 59.0 °F - 53.1 °F 81% 30.09 in 10.0 mi North 6.9 mph - N/A   Overcast
9:53 AM 60.1 °F - 53.1 °F 78% 30.09 in 10.0 mi North 8.1 mph - N/A   Overcast
10:53 AM 62.1 °F - 53.1 °F 72% 30.07 in 10.0 mi NNE 6.9 mph - N/A   Overcast
11:17 AM 62.6 °F - 53.6 °F 72% 30.07 in 10.0 mi NE 4.6 mph - N/A   Overcast
11:53 AM 66.0 °F - 54.0 °F 65% 30.06 in 10.0 mi NNE 6.9 mph - N/A   Overcast
12:40 PM 69.8 °F - 55.4 °F 60% 30.05 in 10.0 mi NE 6.9 mph - N/A   Scattered Clouds
12:53 PM 69.1 °F - 55.0 °F 61% 30.05 in 10.0 mi NNE 4.6 mph - N/A   Clear
1:53 PM 73.9 °F - 57.9 °F 57% 30.03 in 10.0 mi NNE 9.2 mph - N/A   Clear
2:53 PM 75.0 °F - 59.0 °F 57% 30.00 in 10.0 mi SSE 6.9 mph - N/A   Clear
3:53 PM 78.1 °F - 60.1 °F 54% 29.98 in 10.0 mi SE 5.8 mph - N/A   Clear
4:53 PM 80.1 °F 80.9 °F 60.1 °F 50% 29.96 in 10.0 mi Calm Calm - N/A   Clear
5:53 PM 81.0 °F 81.1 °F 57.9 °F 45% 29.94 in 10.0 mi North 13.8 mph - N/A   Clear
6:53 PM 80.1 °F 80.2 °F 55.9 °F 43% 29.94 in 10.0 mi North 12.7 mph - N/A   Clear
7:53 PM 75.9 °F - 55.0 °F 48% 29.94 in 10.0 mi NNW 5.8 mph - N/A   Clear
8:53 PM 69.1 °F - 55.0 °F 61% 29.95 in 10.0 mi NW 4.6 mph - N/A   Clear
9:53 PM 66.0 °F - 53.1 °F 63% 29.96 in 10.0 mi NNW 5.8 mph - N/A   Clear
10:53 PM 62.1 °F - 52.0 °F 70% 29.97 in 10.0 mi NNW 8.1 mph - N/A   Clear
11:53 PM 59.0 °F - 51.1 °F 75% 29.97 in 10.0 mi NNW 5.8 mph - N/A   Clear